TimeCST,TemperatureF,Dew PointF,Humidity,Sea Level PressureIn,VisibilityMPH,Wind Direction,Wind SpeedMPH,Gust SpeedMPH,PrecipitationIn,Events,Conditions,WindDirDegrees,DateUTC
12:53 AM,35.1,34.0,96,30.12,8.0,North,13.8,19.6,N/A,,Overcast,350,2013-01-16 06:53:00
1:53 AM,35.1,34.0,96,30.14,10.0,NNW,9.2,-,N/A,,Overcast,340,2013-01-16 07:53:00
2:53 AM,36.0,34.0,93,30.13,10.0,NNW,11.5,-,N/A,,Overcast,330,2013-01-16 08:53:00
3:27 AM,35.6,33.8,93,30.15,10.0,NNW,12.7,-,N/A,,Overcast,330,2013-01-16 09:27:00
3:53 AM,36.0,33.1,89,30.16,10.0,NW,15.0,-,0.00,Rain,Light Rain,320,2013-01-16 09:53:00
4:53 AM,36.0,33.1,89,30.13,10.0,NNW,18.4,25.3,0.00,,Overcast,340,2013-01-16 10:53:00
5:53 AM,37.0,34.0,89,30.14,10.0,NNW,15.0,-,N/A,,Overcast,330,2013-01-16 11:53:00
6:53 AM,37.0,34.0,89,30.17,10.0,NW,11.5,-,N/A,,Overcast,320,2013-01-16 12:53:00
7:53 AM,37.0,34.0,89,30.20,10.0,NNW,13.8,-,N/A,,Overcast,330,2013-01-16 13:53:00
8:53 AM,37.9,34.0,86,30.25,10.0,NW,12.7,-,N/A,,Overcast,320,2013-01-16 14:53:00
9:53 AM,37.9,34.0,86,30.26,10.0,NW,9.2,-,N/A,,Overcast,320,2013-01-16 15:53:00
10:53 AM,39.0,34.0,82,30.25,10.0,NW,11.5,-,N/A,,Overcast,310,2013-01-16 16:53:00
11:06 AM,39.2,33.8,81,30.25,10.0,NW,8.1,-,N/A,,Overcast,310,2013-01-16 17:06:00
11:53 AM,42.1,35.1,76,30.22,10.0,NNW,12.7,18.4,N/A,,Overcast,330,2013-01-16 17:53:00
12:53 PM,45.0,37.0,74,30.19,10.0,NNW,9.2,-,N/A,,Mostly Cloudy,330,2013-01-16 18:53:00
1:09 PM,46.4,35.6,66,30.18,10.0,NNW,11.5,-,N/A,,Scattered Clouds,330,2013-01-16 19:09:00
1:53 PM,48.0,35.1,61,30.17,10.0,NNW,9.2,-,0.01,,Partly Cloudy,340,2013-01-16 19:53:00
2:53 PM,50.0,32.0,50,30.14,10.0,NW,6.9,-,0.01,,Clear,320,2013-01-16 20:53:00
3:53 PM,51.1,28.9,43,30.14,10.0,NW,8.1,-,N/A,,Clear,320,2013-01-16 21:53:00
4:53 PM,50.0,28.9,44,30.16,10.0,WNW,11.5,-,N/A,,Clear,300,2013-01-16 22:53:00
5:53 PM,46.0,26.1,46,30.19,10.0,WNW,8.1,-,N/A,,Clear,300,2013-01-16 23:53:00
6:53 PM,42.1,28.0,58,30.22,10.0,NW,9.2,-,N/A,,Clear,320,2013-01-17 00:53:00
7:53 PM,41.0,26.1,55,30.25,10.0,NW,6.9,-,N/A,,Clear,310,2013-01-17 01:53:00
8:53 PM,41.0,26.1,55,30.27,10.0,WNW,8.1,-,N/A,,Clear,300,2013-01-17 02:53:00
9:53 PM,37.9,26.1,62,30.26,10.0,WNW,5.8,-,N/A,,Clear,300,2013-01-17 03:53:00
10:53 PM,37.0,28.0,70,30.25,10.0,West,5.8,-,N/A,,Clear,270,2013-01-17 04:53:00
11:53 PM,33.1,28.0,82,30.26,10.0,West,4.6,-,N/A,,Clear,280,2013-01-17 05:53:00